Regional Weather Roundup
Issued by NWS

Home | Current Version | Previous Version | Text Only | Print | Product List | Glossary Off
Versions: 1 2 3 4 5 6 7 8 9 10 11 12 13 14 15 16 17 18 19 20 21 22 23 24 25 26 27

000
ASUS45 KPSR 230510
RWRAZ

ARIZONA HOURLY REGIONAL WEATHER ROUNDUP
NATIONAL WEATHER SERVICE PHOENIX AZ
1000 PM MST MON AUG 22 2016

NOTE: FAIR INDICATES FEW OR NO CLOUDS BELOW 12,000 FEET WITH NO
SIGNIFICANT WEATHER AND/OR OBSTRUCTIONS TO VISIBILITY.

AZZ001>003-036-230600-
NORTHWEST ARIZONA

CITY           SKY/WX    TMP DP  RH WIND       PRES   REMARKS
BULLHEAD CITY  LGT RAIN  81  66  61 E5        29.88F
KINGMAN        LGT RAIN  65  60  84 W12       30.04F
$$

AZZ004>008-015-016-018-230600-
NORTH CENTRAL ARIZONA

CITY           SKY/WX    TMP DP  RH WIND       PRES   REMARKS
GRAND CANYON   MOCLDY    55  48  77 CALM      30.24F
PRESCOTT       PTCLDY    61  58  90 W6        30.17R
FLAGSTAFF      MOCLDY    56  49  77 CALM      30.27S
PAYSON         PTCLDY    66  50  55 CALM      30.18S
PAGE           PTCLDY    74  46  36 CALM      30.04S
$$

AZZ009>014-017-230600-
NORTHEAST ARIZONA

CITY           SKY/WX    TMP DP  RH WIND       PRES   REMARKS
WINSLOW        MOCLDY    67  52  58 CALM      30.14R
SAINT JOHNS    PTCLDY    62  53  72 SE3       30.19R
WINDOW ROCK    MOCLDY    58  51  78 NE5       30.24F
SHOW LOW       PTCLDY    59  45  58 CALM      30.25S
$$

AZZ023-230600-
GREATER PHOENIX AREA

CITY           SKY/WX    TMP DP  RH WIND       PRES   REMARKS
PHOENIX        MOCLDY    90  57  32 SW5       29.85R
BUCKEYE        CLOUDY    84  61  45 NE5       29.87R
LUKE AFB       MOCLDY    86  61  42 N5        29.85R
DEER VALLEY    PTCLDY    86  55  34 N5        29.88R
SCOTTSDALE     PTCLDY    88  55  32 N5        29.89R
MESA-GATEWAY   PTCLDY    90  55  31 N3        29.88R
$$

AZZ027-028-230600-
SOUTHWEST MARICOPA COUNTY AND PINAL COUNTY

CITY           SKY/WX    TMP DP  RH WIND       PRES   REMARKS
CASA GRANDE    MOCLDY    90  55  31 NW9       29.90R
GILA BEND      CLEAR     89  58  35 NE3       29.84R
$$

AZZ503-504-507>509-230600-
SOUTHEAST ARIZONA

CITY           SKY/WX    TMP DP  RH WIND       PRES   REMARKS
TUCSON         CLEAR     83  54  36 S6        29.99R
DAVIS-MONTHAN  PTCLDY    80  56  43 S7        29.98R
NOGALES        CLEAR     69  56  62 CALM      30.09R
SIERRA VISTA   CLEAR     72  52  49 SW8       30.14R
DOUGLAS        CLEAR     70  53  54 N7        30.10R
SAFFORD        CLEAR     82  45  27 NW12      29.98R
$$

AZZ020-021-025-026-031-230600-
SOUTHWEST ARIZONA

CITY           SKY/WX    TMP DP  RH WIND       PRES   REMARKS
YUMA           PTCLDY    90  71  53 W10       29.80R
$$

CAZ031-033-041-043-047-048-061-230600-
SOUTHERN CALIFORNIA

CITY           SKY/WX    TMP DP  RH WIND       PRES   REMARKS
DOWNTOWN L.A.  CLEAR     67  59  75 W3        29.93R
L.A. AIRPORT   CLEAR     66  61  84 SW8       29.93R
SAN DIEGO      PTCLDY    68  62  81 NW6       29.95R
BURBANK        CLEAR     70  59  68 E8        29.93R
ONTARIO        CLEAR     73  57  57 W8        29.94R
RIVERSIDE      CLEAR     74  56  53 W5        29.94R
PALM SPRINGS   CLEAR     94  44  17 NW15      29.81R
EL CENTRO NAS  PTCLDY    93  40  15 W14       29.80R
IMPERIAL       CLEAR     92  47  21 W13       29.77R
BLYTHE         CLEAR     93  44  18 W3        29.78R
NEEDLES        CLOUDY    81  67  62 NW5       29.91R
$$

NVZ020-UTZ003-230600-
SOUTHERN NEVADA-UTAH

CITY           SKY/WX    TMP DP  RH WIND       PRES   REMARKS
LAS VEGAS      CLOUDY    74  58  57 E17       29.99R
SALT LAKE CITY MOCLDY    79  32  18 SE3       29.94R
$$

NMZ009-TXZ055-230600-
NEW MEXICO-WEST TEXAS

CITY           SKY/WX    TMP DP  RH WIND       PRES   REMARKS
ALBUQUERQUE    CLOUDY    62  57  83 SE7       30.18S
EL PASO        TSTM      71  65  81 SE10      30.11R
$$


........................KEY........................
SKY/WX - SKY CONDITION/WEATHER
TMP    - TEMPERATURE IN FAHRENHEIT
DP     - DEW POINT IN FAHRENHEIT
RH     - RELATIVE HUMIDITY IN PERCENT
WIND   - DIRECTION AND SPEED IN MILES PER HOUR (MPH)
VRB    - VARIABLE WIND DIRECTION
PRES   - MEAN SEA LEVEL PRESSURE IN INCHES OF MERCURY
         F - FALLING PRESSURE   R - RISING PRESSURE
         S - STEADY PRESSURE
VSB    - VISIBILITY IN MILES
HX     - HEAT INDEX IN FAHRENHEIT
WCI    - WIND CHILL INDEX IN FAHRENHEIT
TC     - TEMPERATURE IN CELSIUS WHICH IS ALSO KNOWN AS
         TEMPERATURE IN CENTIGRADE
AFB    - AIR FORCE BASE
         LUKE AFB IS LUKE AIR FORCE BASE
         DAVIS-MONTHAN IS DAVIS-MONTHAN AIR FORCE BASE
NAS    - NAVAL AIR STATION
         EL CENTRO NAS IS EL CENTRO NAVAL AIR STATION
N/A    - NOT AVAILABLE





USA.gov is the U.S. government's official web portal to all federal, state and local government web resources and services.